Dewpoint
44 45 44 45 44 44 44 43 44 44 44 44 45 45 45 44 44 44 42 43 43 43 42 43 43 42 42 41 42 42 42 42 41 42 42 42 42 42 41 41 42 42 41 39 39 39 40 40 38 37 35 35 35 31 32 32 33 33 32 32 31 31 30 13 12 11 13 18 23 21 23 22 22 22 22 23 23 25 27 24 24 24 23 22 22
44 44 43 44 43 43 43 41 43 42 43 43 43 44 44 43 42 40 41 41 41 42 42 42 42 41 41 41 41 41 41 42 41 41 41 41 41 42 41 41 41 41 39 39 38 38 38 38 36 34 32 32 30 28 29 29 29 31 32 31 31 30 20 13 14 11 9 9 20 21 21 22 19 24 21 21 22 23 23 23 25 24 23 22 21
43 43 43 42 42 41 40 41 41 40 41 42 41 42 41 40 39 40 39 38 37 40 41 42 42 41 41 40 40 40 40 40 40 40 41 41 41 40 41 40 40 40 39 39 38 37 36 36 35 33 31 32 31 30 29 28 28 27 27 26 24 24 13 10 8 6 8 10 15 17 18 21 17 21 23 25 25 25 23 21 20 24 24 23 22
42 41 41 41 40 39 41 40 39 39 40 41 40 39 39 39 37 39 39 37 38 38 39 41 41 41 41 40 40 39 39 38 38 39 40 40 41 41 40 40 40 40 39 39 37 36 36 35 33 32 32 31 29 27 24 21 20 19 17 14 14 9 6 4 4 5 6 6 6 12 16 19 18 21 23 22 22 20 21 21 21 19 19 22 20
40 41 40 41 40 40 40 39 39 39 39 39 39 38 37 37 36 38 37 38 38 37 38 38 39 40 40 40 39 39 39 38 38 38 38 39 40 40 39 39 39 39 39 39 36 36 35 35 33 31 31 30 28 25 21 19 15 15 16 14 12 9 10 9 11 12 11 14 16 19 18 19 17 18 19 19 19 17 17 16 14 15 15 16 19
41 41 41 41 41 39 39 38 39 39 39 39 38 38 37 37 37 37 38 39 37 37 38 38 39 39 39 39 39 38 38 38 38 38 38 38 38 38 38 38 38 38 38 37 36 35 35 34 32 30 29 28 25 23 20 18 16 16 17 15 13 14 15 18 20 23 25 25 21 19 20 23 22 20 20 19 18 17 13 9 6 5 7 6 9
40 41 41 40 41 40 40 40 41 40 39 39 37 37 37 37 37 38 36 38 38 37 37 37 37 39 38 38 37 37 37 37 37 37 37 37 37 37 37 37 37 37 37 36 35 35 34 33 30 29 29 27 25 21 18 17 16 16 17 17 17 18 19 21 23 24 24 23 23 23 23 24 24 24 23 19 17 15 11 7 7 7 6 6 8
40 40 41 40 41 42 41 41 40 40 40 39 38 37 37 37 37 37 36 37 37 37 37 37 37 37 38 37 37 36 36 36 36 36 36 36 37 37 37 36 36 35 35 34 34 34 33 32 30 29 28 26 23 21 18 16 17 20 19 19 20 21 23 24 26 26 26 26 25 24 24 24 23 23 21 15 13 12 9 7 10 11 12 11 11
39 40 40 40 42 42 42 40 39 38 37 37 37 37 36 36 35 36 36 36 37 36 36 36 36 36 36 36 35 34 34 35 35 35 35 35 36 36 36 36 35 35 34 33 33 32 32 31 29 29 28 28 26 24 22 21 21 21 21 23 24 25 25 26 27 27 26 26 25 25 24 23 24 23 21 19 17 20 19 10 11 12 13 15 16
39 39 39 41 42 42 40 37 37 36 35 37 36 35 35 35 35 35 35 36 36 35 34 34 35 36 35 34 33 33 33 33 33 34 35 34 34 35 35 35 34 34 32 31 30 30 30 29 28 29 28 27 26 25 25 25 25 24 24 25 27 26 26 26 26 27 26 26 25 24 24 24 24 23 22 21 20 17 18 17 15 16 17 18 18
37 38 40 40 41 40 38 38 35 36 36 34 34 35 35 35 35 35 35 34 34 34 34 34 34 34 34 33 32 32 32 32 33 35 36 36 34 34 33 33 33 32 31 29 27 26 25 24 24 26 26 26 25 26 28 27 28 28 27 30 30 29 28 27 27 27 26 26 26 25 25 25 24 23 22 22 21 19 17 15 17 19 19 19 19
37 38 39 39 39 39 38 37 36 36 35 36 36 35 35 35 35 35 34 34 33 32 33 33 33 33 33 32 31 31 30 32 34 35 36 36 35 32 32 32 31 30 28 27 25 25 25 24 24 23 22 22 24 26 27 29 30 30 31 31 31 31 31 30 27 26 26 25 25 26 26 25 24 24 23 21 21 18 19 20 20 19 20 21 20
36 37 38 38 38 37 37 36 37 36 36 36 35 34 34 35 35 34 34 33 32 32 33 32 32 32 32 31 30 29 29 31 33 35 35 36 36 32 31 30 30 29 27 25 24 24 24 23 22 21 23 26 26 27 28 29 30 32 32 32 32 32 32 31 30 29 28 27 26 25 25 25 25 25 24 22 24 22 22 22 22 22 22 22 22
35 36 36 37 37 36 36 36 36 36 35 34 34 34 34 34 34 34 33 31 32 31 31 31 31 31 31 31 30 30 29 30 34 34 34 35 36 34 30 30 29 28 25 24 22 20 20 21 22 22 23 26 27 28 29 30 30 31 30 30 31 32 32 32 31 30 29 27 26 26 26 26 25 25 24 26 24 23 22 22 23 23 23 22 21
34 35 35 36 35 35 35 35 35 35 34 34 34 34 34 34 32 32 32 31 31 31 31 30 30 30 30 31 30 30 29 31 33 34 34 34 36 34 30 29 28 27 23 21 19 18 19 21 21 21 24 26 28 29 30 30 30 30 30 30 30 31 31 31 30 29 29 28 27 27 27 26 26 25 25 26 25 24 24 24 24 24 23 21 21
34 34 34 34 35 34 34 35 35 34 34 33 33 34 33 33 33 31 30 30 30 29 29 29 30 29 30 30 29 29 27 31 33 33 34 34 35 31 29 28 26 25 23 19 18 19 21 21 22 25 26 27 30 32 32 31 30 30 29 29 29 29 29 30 32 31 30 29 28 28 28 27 28 26 27 26 26 26 27 26 23 18 18 20 21
34 34 34 34 34 34 34 34 34 34 33 33 33 33 33 32 31 29 29 29 29 29 29 29 30 30 30 29 29 29 28 29 32 34 34 34 35 29 28 26 25 24 22 19 18 20 21 22 23 25 27 28 32 33 33 32 30 29 28 27 27 27 27 29 31 31 31 31 31 30 30 30 29 28 27 27 28 26 22 20 20 22 21 19 18
34 33 34 34 33 33 33 33 34 34 33 33 33 33 32 31 30 29 30 29 29 28 28 28 29 30 30 29 29 28 28 28 31 33 34 34 32 28 26 25 24 23 21 19 19 22 23 27 27 27 28 30 33 34 34 31 29 28 27 26 25 25 25 26 27 29 30 30 30 28 27 26 26 26 26 28 27 26 21 19 20 17 13 15 15
33 34 34 33 33 32 33 33 34 34 33 33 33 32 30 30 29 28 29 29 28 27 28 28 27 29 30 29 29 28 27 28 32 33 34 34 31 28 25 24 23 22 20 20 22 24 25 28 29 30 30 32 34 34 33 31 28 27 26 25 24 24 25 25 25 24 24 23 24 25 26 27 25 23 23 24 23 22 20 20 16 15 13 15 15
33 33 32 32 32 32 32 33 33 33 33 32 31 31 29 27 27 27 27 28 27 27 27 28 28 28 29 28 28 28 27 28 31 33 33 34 32 26 24 22 21 21 21 22 23 25 27 28 30 32 33 34 35 34 33 32 28 27 26 25 24 24 25 25 24 24 24 25 24 24 22 22 21 19 18 17 19 20 19 17 14 13 9 10 11
32 31 31 31 31 31 31 32 32 32 32 31 29 27 27 28 26 27 26 26 26 25 26 27 28 27 27 27 27 28 28 28 30 32 34 35 31 28 24 23 23 21 20 22 24 25 27 28 29 32 34 34 34 34 33 32 30 27 27 26 26 26 26 24 26 26 25 25 23 19 19 19 18 18 18 18 17 15 16 19 14 11 7 3 4
31 30 30 30 30 30 30 30 29 30 27 26 26 26 24 26 27 27 26 26 25 25 26 26 26 26 26 26 26 27 28 29 29 31 33 32 30 28 23 24 23 21 21 22 24 26 27 28 29 31 34 34 34 34 33 33 31 27 27 29 30 29 26 26 26 25 22 20 18 17 16 15 15 15 15 13 11 11 10 9 13 9 10 9 7
29 29 29 29 28 28 27 26 28 25 25 26 26 25 24 25 25 26 25 25 25 26 26 26 25 24 24 25 26 26 28 29 29 31 32 31 29 27 26 25 25 23 21 22 24 26 27 28 30 32 34 34 34 34 34 33 30 28 31 31 30 29 27 22 21 19 17 16 16 14 12 12 12 9 9 8 7 7 7 7 6 6 5 6 8
28 27 27 26 24 24 23 22 23 23 24 25 25 25 25 25 25 26 26 26 25 25 25 25 24 23 23 23 25 25 28 29 30 31 30 30 29 28 27 27 26 23 23 23 25 27 28 29 31 33 34 34 34 34 33 31 29 31 31 31 30 26 19 18 17 16 15 14 13 11 10 11 11 9 8 6 5 4 5 3 2 1 1 1 2
25 26 25 24 22 21 21 21 21 21 22 25 25 25 24 25 25 24 25 25 25 25 24 24 23 23 22 22 23 25 28 29 29 30 29 29 29 28 27 27 26 25 24 25 27 28 29 31 33 34 33 33 33 33 32 31 31 31 31 29 23 18 17 16 15 14 13 11 10 11 14 12 10 9 6 4 2 1 -1 -2 -3 -2 -3 -3 -4
25 26 23 21 20 19 21 20 20 20 22 24 26 26 26 26 26 25 25 25 25 24 23 23 22 22 22 22 23 25 27 28 29 29 29 28 28 28 28 28 27 27 26 27 29 30 31 33 33 33 33 33 32 30 29 30 30 30 27 22 17 16 15 14 13 13 11 11 12 12 11 9 6 5 3 -0 1 -2 -3 -4 -7 -4 -5 -6 -7
25 24 23 21 18 18 20 20 20 20 20 22 23 25 26 26 26 25 25 25 24 24 23 22 22 21 21 22 23 25 27 28 28 28 28 28 29 29 29 29 28 28 28 28 30 31 31 32 32 32 32 31 29 28 28 28 27 24 18 16 15 14 15 14 13 12 11 10 9 6 4 3 3 1 -3 -2 -5 -4 -2 -3 -11 -8 -5 -9 -11
25 25 22 20 20 19 21 23 22 21 21 23 25 24 25 26 26 26 25 25 24 23 23 22 22 21 21 22 23 25 26 27 28 28 28 28 28 29 29 28 29 28 28 29 30 31 31 31 31 28 27 25 24 22 21 20 18 17 15 13 11 12 15 16 13 8 6 6 4 2 -1 -4 -5 -6 -5 -7 -9 -6 -4 -6 -8 -10 -6 -10 -13
24 23 21 20 21 21 21 20 21 22 22 23 23 25 26 26 26 26 26 26 25 24 23 23 23 22 22 22 22 23 24 26 28 29 28 29 28 27 27 28 28 28 29 31 28 28 26 24 23 22 22 20 19 18 17 16 14 13 11 11 10 10 7 8 7 5 3 3 2 -1 -2 -6 -5 -6 -7 -8 -7 -8 -8 -12 -9 -12 -11 -14 -14
23 24 22 22 21 21 21 21 21 21 21 22 22 21 27 28 27 26 26 27 28 28 25 24 24 23 23 24 24 23 23 25 29 30 30 30 30 29 29 29 29 29 30 30 27 24 23 22 21 20 19 18 17 16 16 15 12 10 8 14 8 6 4 3 3 1 -1 -1 -1 -3 -6 -7 -9 -11 -11 -9 -9 -9 -7 -1 -12 -11 -13 -16 -15
25 24 24 23 23 23 22 22 21 21 21 22 22 23 24 27 29 29 28 29 28 28 27 27 26 26 24 23 25 26 28 29 31 31 31 31 30 30 30 30 30 31 30 26 24 22 20 19 17 17 17 17 17 16 15 14 12 11 9 7 3 7 3 0 -2 -2 -2 -3 -6 -6 -7 -7 -8 -10 -10 -9 -10 -12 -13 -9 -12 -15 -14 -13 -15
25 26 24 23 24 24 22 22 23 23 22 22 24 25 25 25 26 29 29 29 29 29 28 28 28 28 27 25 25 26 29 30 31 31 31 31 30 30 30 30 30 30 29 26 20 19 19 17 16 16 16 16 16 15 14 13 12 10 7 5 2 0 2 -2 -1 -3 -4 -5 -5 -7 -9 -10 -9 -10 -9 -8 -8 -14 -15 -14 -16 -15 -14 -15 -14
25 25 24 24 24 25 24 24 24 23 23 22 23 24 25 25 25 26 28 29 29 29 29 29 29 28 28 27 26 26 29 30 30 30 30 30 30 30 30 30 30 29 27 22 20 18 17 17 16 16 16 15 15 14 13 12 10 8 7 7 4 1 -1 0 1 -3 -6 -5 -6 -7 -9 -9 -9 -8 -7 -7 -10 -15 -13 -13 -18 -15 -16 -17 -13
25 25 25 24 24 24 24 24 24 24 24 24 23 23 25 25 26 26 26 26 28 29 30 30 29 29 28 28 27 27 29 30 31 31 30 30 30 30 30 29 30 29 25 21 19 18 17 17 17 16 16 15 14 13 11 9 8 6 3 4 1 -2 -4 -5 -3 -5 -6 -3 -6 -8 -9 -10 -9 -11 -14 -16 -13 -15 -15 -14 -19 -18 -17 -18 -18
25 24 24 25 25 25 24 24 24 25 25 24 24 24 25 25 26 26 25 25 25 25 26 28 29 29 28 27 28 27 29 30 31 31 30 29 29 29 30 28 27 26 24 20 19 18 17 17 17 17 16 14 12 11 10 5 4 4 2 -1 -3 -4 -5 -5 -6 -5 -7 -11 -11 -10 -10 -10 -13 -13 -11 -15 -17 -16 -18 -18 -19 -18 -22 -18 -16
25 26 25 25 26 25 24 24 24 25 25 25 25 25 24 25 25 25 25 24 24 24 24 26 26 28 28 28 28 28 29 30 30 30 30 30 29 29 27 26 26 24 20 19 19 18 17 17 16 15 13 9 9 8 7 5 3 2 -0 -2 -3 -4 -5 -7 -8 -9 -11 -10 -11 -10 -9 -14 -14 -13 -18 -18 -16 -16 -18 -16 -18 -15 -15 -19 -16
26 26 26 26 26 25 24 23 24 25 25 24 24 24 24 24 24 24 23 24 23 23 23 24 25 26 27 26 28 29 29 29 29 29 29 29 30 29 26 25 24 22 19 18 17 15 15 12 11 10 9 9 5 5 1 0 -2 -3 -0 -4 -4 -5 -6 -8 -9 -9 -11 -14 -13 -10 -10 -12 -14 -16 -14 -14 -15 -18 -20 -18 -16 -12 -11 -11 -8
26 27 27 26 25 25 24 24 24 25 24 23 23 23 23 23 23 22 22 22 22 22 23 23 24 24 24 25 28 28 28 29 29 28 29 29 27 24 23 22 22 20 18 15 13 12 11 5 6 9 3 4 3 -2 -1 -5 -6 -4 -4 -9 -9 -8 -4 -4 -4 -10 -12 -13 -14 -14 -14 -15 -17 -17 -14 -16 -16 -17 -16 -14 -18 -18 -14 -11 -13
26 26 26 26 26 26 25 25 24 24 23 23 23 22 22 22 21 21 21 21 21 22 22 22 22 22 23 25 25 26 26 25 24 24 24 23 21 20 18 18 18 17 13 11 7 8 8 5 0 -0 0 -2 -1 -3 -2 -5 -8 -8 -9 -9 -11 -12 -6 -12 -10 -12 -13 -13 -15 -17 -16 -16 -19 -19 -16 -17 -17 -17 -17 -15 -16 -19 -20 -19 -19
25 26 26 26 26 26 25 24 24 24 23 23 23 22 21 21 21 21 21 21 21 21 21 21 21 21 22 23 23 24 23 22 22 20 17 16 15 15 15 14 14 12 10 8 7 7 6 3 -1 -3 -5 -7 -6 -6 -9 -7 -7 -8 -10 -8 -9 -10 -9 -10 -9 -11 -10 -15 -15 -18 -18 -18 -20 -21 -19 -18 -17 -19 -19 -19 -18 -17 -19 -19 -18
24 25 23 26 26 26 24 24 23 23 23 22 22 21 20 20 20 20 20 21 20 20 20 19 19 17 18 20 24 24 21 20 16 15 14 11 10 10 10 9 8 6 4 4 2 2 1 -3 -7 -8 -10 -11 -11 -9 -11 -11 -12 -11 -10 -12 -13 -12 -14 -16 -14 -14 -15 -15 -16 -17 -19 -19 -20 -19 -17 -17 -10 -14 -18 -17 -17 -17 -16 -15 -17
23 24 24 24 24 24 24 22 22 22 22 21 22 21 19 19 20 19 19 19 18 18 17 15 15 15 19 22 21 19 12 9 9 6 5 4 3 1 -1 -1 0 2 1 -1 -3 -4 -6 -7 -8 -9 -9 -11 -11 -13 -13 -13 -11 -11 -12 -13 -12 -15 -15 -14 -16 -16 -16 -16 -17 -17 -19 -20 -19 -18 -16 -7 -17 -17 -20 -18 -19 -19 -20 -18 -17
21 23 23 23 24 23 23 22 22 22 21 21 20 17 18 19 19 18 18 17 17 15 14 13 13 16 18 19 16 12 7 6 3 3 0 -2 -4 -6 -5 -6 -8 -9 -9 -9 -10 -7 -6 -7 -9 -10 -10 -10 -10 -10 -9 -10 -11 -11 -14 -15 -14 -14 -15 -17 -17 -17 -19 -18 -18 -18 -19 -19 -14 -17 -18 -16 -19 -20 -19 -18 -18 -19 -18 -19 -19
21 21 22 22 22 22 21 21 21 20 20 18 17 17 17 17 17 17 16 15 14 13 13 13 14 15 12 10 8 5 5 3 3 0 -3 -5 -6 -8 -9 -11 -12 -11 -12 -12 -13 -11 -9 -10 -13 -16 -18 -16 -16 -17 -15 -14 -12 -12 -14 -14 -15 -15 -16 -16 -15 -16 -16 -16 -17 -18 -18 -18 -15 -17 -16 -15 -19 -18 -18 -19 -19 -19 -20 -23 -23
20 21 21 21 21 21 20 20 19 19 16 15 16 15 14 16 15 15 15 14 11 11 12 12 13 10 7 5 4 3 2 1 -3 -4 -5 -5 -8 -9 -11 -11 -11 -11 -12 -14 -15 -14 -12 -12 -13 -15 -17 -20 -20 -18 -17 -17 -15 -14 -13 -12 -13 -12 -12 -13 -14 -16 -16 -17 -15 -17 -17 -16 -17 -16 -15 -15 -16 -16 -17 -17 -19 -15 -19 -20 -21
18 19 19 19 18 17 17 17 14 15 15 15 15 14 14 15 14 13 12 11 10 10 10 11 10 8 6 3 -0 -2 -3 -4 -5 -6 -8 -9 -9 -10 -11 -11 -11 -12 -12 -14 -15 -14 -13 -13 -12 -13 -14 -16 -17 -17 -17 -17 -16 -16 -15 -15 -12 -12 -14 -16 -19 -17 -16 -16 -14 -15 -15 -16 -16 -15 -14 -16 -15 -16 -17 -20 -22 -20 -21 -21 -21
18 18 18 17 17 15 14 13 14 14 14 13 13 12 12 12 11 9 8 8 8 8 9 9 8 6 3 1 -2 -4 -5 -6 -7 -8 -8 -9 -9 -10 -12 -13 -13 -13 -14 -15 -15 -14 -14 -14 -14 -13 -13 -14 -15 -15 -16 -16 -16 -15 -16 -16 -16 -16 -19 -19 -16 -15 -15 -15 -15 -17 -15 -14 -14 -14 -13 -13 -16 -16 -17 -19 -20 -21 -21 -21 -21
16 15 15 14 14 13 12 13 12 9 11 11 11 10 9 8 8 7 7 6 6 7 8 7 6 4 1 -1 -3 -5 -6 -7 -8 -8 -9 -9 -10 -11 -12 -12 -12 -12 -14 -15 -16 -15 -15 -15 -15 -14 -13 -14 -14 -14 -15 -17 -17 -17 -17 -16 -16 -15 -14 -14 -17 -17 -17 -18 -17 -16 -15 -15 -14 -14 -15 -15 -16 -19 -20 -19 -21 -21 -21 -21 -20
14 14 13 12 12 11 11 11 10 11 10 9 7 7 6 7 6 5 5 5 5 5 6 4 3 2 1 -3 -5 -6 -7 -9 -8 -9 -9 -9 -10 -11 -11 -11 -12 -12 -12 -13 -14 -15 -15 -15 -15 -15 -15 -15 -15 -15 -15 -16 -16 -16 -16 -15 -13 -11 -11 -12 -14 -15 -14 -15 -15 -15 -15 -15 -15 -16 -17 -19 -18 -21 -20 -22 -22 -20 -20 -20 -20
11 10 11 11 10 10 10 10 9 8 7 7 6 5 4 4 3 3 3 3 3 3 4 3 2 1 -0 -4 -6 -7 -7 -8 -8 -9 -9 -9 -10 -10 -11 -11 -12 -12 -12 -12 -13 -14 -15 -16 -17 -17 -17 -17 -16 -15 -15 -14 -14 -14 -15 -15 -8 -7 -8 -10 -11 -12 -13 -15 -15 -15 -15 -16 -18 -20 -21 -21 -23 -22 -22 -20 -21 -20 -20 -21 -21
7 8 7 7 7 6 7 6 6 6 5 5 4 3 2 2 2 1 1 2 2 1 1 1 1 -0 -1 -3 -6 -7 -7 -6 -7 -8 -9 -9 -10 -10 -11 -12 -12 -13 -13 -13 -14 -15 -15 -16 -16 -16 -16 -15 -15 -15 -15 -14 -14 -15 -11 -8 -7 -6 -6 -7 -10 -10 -11 -13 -19 -19 -19 -19 -21 -21 -23 -24 -25 -24 -21 -20 -20 -21 -22 -21 -22